NUSAT-37 (JOAN CLARKE)

导读

NUSAT-37又名JOAN CLARKE,是阿根廷Satellogic公司NUSAT系列商业对地观测卫星,于2023年4月15日发射。该卫星属于Satellogic星座组网卫星,具备高分辨率地球观测能力,可服务于环境监测、城市规划、灾害评估等多领域应用。作为新兴航天国家阿根廷的商业航天成果,它进一步推动了拉丁美洲微小卫星产业发展,也丰富了全球低轨观测卫星资源。

基本信息
目录编号:
56203
目录名称:
NUSAT-37 (JOAN CLARKE)
国际标识:
2023-054AB
轨道中心:
EARTH
卫星名称:
NUSAT-37 (JOAN CLARKE)
卫星全名:
--
卫星状态:
在轨 (已飞行1198 天)
发射日期:
2023-04-15 UTC
国别 :
阿根廷 (AR)
星等 :
--
轨道信息
数据来源 国际轨道数据
星历时间: 2026-07-25T22:53:56+0800
18小时前
查看轨道信息
半长轴: 6764.369km
偏心率: 0.0008758
轨道倾角: 97.259°
近地点辐角 118.335°
升交点赤经 114.504°
平近点角 241.879°
近地点: 380.307km
远地点: 392.157km
周期: 92.279分钟
每日圈数: 15.604932
详细信息
使用方式:
暂无
2D轨道图
3D轨道图
轨道高度分析图
轨道倾角分析图
轨道综合分析图
查看轨道综合分析图